Location: Newark
(51.5114°N, 0.0848°W)
Time: 09:20:17
(UTC+00:00)

N. Korean satellite - Pass Details

Date: 29 October 2019
Orbit: 456 x 506 km, 97.2° (Epoch: 12 November)

Event Time Altitude Azimuth Distance (km) Brightness Sun altitude
Rises 17:52:20 0° 200° (SSW) 2,483 10.6 -11.8°
Reaches altitude 10° 17:54:45 10° 218° (SW) 1,621 9.9 -12.2°
Maximum altitude 17:57:23 20° 268° (W) 1,141 9.6 -12.6°
Drops below altitude 10° 18:00:05 10° 317° (NW) 1,652 9.8 -13.0°
Sets 18:02:35 0° 335° (NNW) 2,547 10.5 -13.4°
